Kingsport, TN

11:27 PM EST on January 20, 2017 (GMT -0500)
Tri-Cities

Weather History for KTRI - November, 2011

Change the Weather History Date:

Wednesday, November 9, 2011

  Actual Average Record
Temperature  
Mean Temperature 52 °F 49 °F  
Max Temperature 69 °F 62 °F 78 °F (1975)
Min Temperature 34 °F 36 °F 21 °F (1951)
Degree Days  
Heating Degree Days 13 16  
Month to date heating degree days 148 134  
Since 1 July heating degree days 462 469  
Cooling Degree Days 0 0  
Month to date cooling degree days 0 0  
Year to date cooling degree days 1331 980  
Growing Degree Days 2 (Base 50)    
Moisture  
Dew Point 47 °F    
Average Humidity 72    
Maximum Humidity 100    
Minimum Humidity 44    
Precipitation  
Precipitation 0.08 in 0.10 in 1.51 in (2000)
Month to date precipitation 1.71 0.83  
Year to date precipitation 40.69 35.37  
Snow  
Snow 0.00 in 0.00 in - ()
Month to date snowfall 0.0 0.0  
Since 1 July snowfall 0.0 0.1  
Since 1 September snowfall 0.0 0.1  
Snow Depth 0.00 in    
Sea Level Pressure  
Sea Level Pressure 30.03 in    
Wind  
Wind Speed 2 mph (SW)    
Max Wind Speed 9 mph    
Max Gust Speed 13 mph    
Visibility 9 miles    
Events Rain    
T = Trace of Precipitation, MM = Missing Value Source: NWS Daily Summary

Daily Weather History Graph

Daily Weather History Graph

Search for Another Location

Airport or City:

Trip Planner

Search our weather history database for the weather conditions in past years. The results will help you decide how hot, cold, wet, or windy it might be!

Date:

Astronomy

Nov. 09, 2011 Rise Set
Actual Time 7:00 AM EST 5:25 PM EST
Civil Twilight 6:33 AM EST 5:52 PM EST
Nautical Twilight 6:02 AM EST 6:23 PM EST
Astronomical Twilight 5:32 AM EST 6:54 PM EST
Moon 4:37 PM EST (11/9) 5:55 AM EST (11/9)
Length of Visible Light 11h 19m
Length of Day
10h 25m
Waxing Gibbous, 99% of the Moon is Illuminated
Nov 9
Waxing Gibbous
Nov 10
Full
Nov 18
Last Quarter
Nov 25
New
Dec 2
First Quarter

Hourly Weather History & Observations

Time (EST) Temp. Windchill Dew Point Humidity Pressure Visibility Wind Dir Wind Speed Gust Speed Precip Events Conditions
12:53 AM 37.9 °F - 37.0 °F 97% 30.11 in 10.0 mi Calm Calm - N/A   Clear
1:53 AM 37.9 °F - 36.0 °F 93% 30.10 in 10.0 mi Calm Calm - N/A   Clear
2:53 AM 36.0 °F - 35.1 °F 97% 30.11 in 10.0 mi Calm Calm - N/A   Clear
3:53 AM 37.9 °F - 36.0 °F 93% 30.11 in 10.0 mi Calm Calm - N/A   Clear
4:53 AM 35.1 °F - 33.1 °F 92% 30.11 in 8.0 mi Calm Calm - N/A   Clear
5:53 AM 34.0 °F - 33.1 °F 96% 30.11 in 8.0 mi Calm Calm - N/A   Clear
6:53 AM 35.1 °F 32.2 °F 35.1 °F 100% 30.12 in 10.0 mi NE 3.5 mph - N/A   Partly Cloudy
7:53 AM 37.9 °F - 35.1 °F 89% 30.12 in 8.0 mi Calm Calm - N/A   Partly Cloudy
8:53 AM 45.0 °F - 41.0 °F 86% 30.12 in 10.0 mi Calm Calm - N/A   Scattered Clouds
9:53 AM 52.0 °F - 44.1 °F 74% 30.09 in 10.0 mi Calm Calm - N/A   Scattered Clouds
10:53 AM 60.1 °F - 45.0 °F 57% 30.06 in 10.0 mi Calm Calm - N/A   Scattered Clouds
11:53 AM 66.0 °F - 46.0 °F 48% 30.02 in 10.0 mi Calm Calm - N/A   Scattered Clouds
12:53 PM 69.1 °F - 46.9 °F 45% 30.00 in 10.0 mi Calm Calm - N/A   Mostly Cloudy
1:53 PM 68.0 °F - 46.9 °F 47% 29.98 in 10.0 mi Calm Calm - N/A   Mostly Cloudy
2:53 PM 68.0 °F - 48.0 °F 49% 29.96 in 10.0 mi SSW 3.5 mph - N/A   Overcast
3:53 PM 66.9 °F - 48.0 °F 51% 29.95 in 10.0 mi WSW 4.6 mph - N/A   Overcast
4:53 PM 64.0 °F - 48.9 °F 58% 29.94 in 10.0 mi WSW 4.6 mph - N/A   Overcast
5:53 PM 62.1 °F - 52.0 °F 70% 29.96 in 8.0 mi SW 5.8 mph - 0.02 in Rain Light Rain
6:53 PM 61.0 °F - 53.1 °F 75% 29.97 in 10.0 mi West 5.8 mph - 0.00 in   Overcast
7:53 PM 57.0 °F - 55.0 °F 93% 29.99 in 10.0 mi SW 3.5 mph - 0.05 in Rain Light Rain
8:25 PM 57.2 °F - 53.6 °F 88% 30.02 in 10.0 mi SW 3.5 mph - 0.00 in Rain Light Rain
8:53 PM 57.0 °F - 55.0 °F 93% 29.99 in 10.0 mi SW 3.5 mph - 0.00 in Rain Light Rain
9:23 PM 57.2 °F - 55.4 °F 94% 30.02 in 10.0 mi Calm Calm - 0.01 in Rain Light Rain
9:53 PM 57.0 °F - 55.0 °F 93% 29.98 in 10.0 mi SSW 3.5 mph - 0.01 in   Overcast
10:53 PM 55.9 °F - 55.0 °F 97% 29.97 in 8.0 mi Calm Calm - N/A   Overcast
11:00 PM 55.4 °F - 55.4 °F 100% 30.01 in 8.0 mi Calm Calm - N/A   Overcast
11:12 PM 55.4 °F - 55.4 °F 100% 30.01 in 6.0 mi Calm Calm - N/A   Overcast
11:37 PM 55.4 °F - 55.4 °F 100% 30.01 in 5.0 mi Calm Calm - N/A   Overcast
11:53 PM 55.9 °F - 55.0 °F 97% 29.96 in 3.0 mi NW 3.5 mph - 0.00 in Rain Light Rain